SCP
0 0 0 0 0 0 0 0 0 0 0 0 0 0 0 0 0 0 0 0 0 0 0 0 0 0 0 0 0 0 0 0 0 0 0 0 0 0 0 0 0 0 0 0 -0
0 0 0 0 0 0 0 0 0 0 0 0 0 0 0 0 0 0 0 0 0 0 0 0 0 0 0 0 0 0 0 0 0 0 0 0 0 0 0 0 0 0 0 0 0
0 0 0 0 0 0 0 0 0 0 0 0 0 0 0 0 0 0 0 0 0 0 0 0 0 0 0 0 0 0 0 0 0 0 0 0 0 0 0 0 0 0 0 0 0
0 0 0 0 0 0 0 0 0 0 0 0 0 0 0 0 0 0 0 0 0 0 0 0 0 0 0 0 0 0 0 0 0 0 0 0 0 0 0 0 0 0 0 0 0
0 0 0 0 0 0 0 0 0 0 0 0 0 0 0 0 0 0 0 0 0 0 0 0 0 0 0 0 0 0 0 0 0 0 0 0 0 0 0 0 0 0 0 0 0
0 0 0 0 0 0 0 0 0 0 0 0 0 0 0 0 0 0 0 0 0 0 0 0 0 0 0 0 0 0 0 0 0 0 0 0 0 0 0 0 0 0 0 0 0
0 0 0 0 0 0 0 0 0 0 0 0 0 0 0 0 0 0 0 0 0 0 0 0 0 0 0 0 0 0 0 0 0 0 0 0 0 0 0 0 0 0 0 0 0
0 0 0 0 0 0 0 0 0 0 0 0 0 0 0 0 0 0 0 0 0 0 0 0 0 0 0 0 0 0 0 0 0 0 0 0 0 0 0 0 0 0 0 0 0
0 0 0 0 0 0 0 0 0 0 0 0 0 0 0 0 0 0 0 0 0 0 0 0 0 0 0 0 0 0 0 0 0 0 0 0 0 0 0 0 0 0 0 0 0
0 0 0 0 -0 0 0 0 0 0 0 0 0 0 0 0 0 0 0 0 0 0 0 0 0 0 0 0 0 0 0 0 0 0 0 0 0 0 0 0 0 0 0 0 0
0 0 0 -0 -0 0 0 0 0 0 0 0 0 0 0 0 0 0 0 0 0 0 0 0 0 0 0 0 0 0 0 0 0 0 0 0 0 0 0 0 0 0 0 0 0
0 0 -0 -0 -0 0 -0 -0 0 0 0 -0 0 0 0 0 0 0 0 0 0 0 0 0 0 0 0 0 0 0 0 0 0 0 0 0 0 0 0 0 0 0 0 0 0
0 0 -0 -0 0 -0 0 0 0 0 0 0 0 0 0 0 0 0 0 0 0 0 0 0 0 0 0 0 0 0 0 0 0 0 0 0 0 0 0 0 0 0 0 0 0
0 0 -0 -0 -0 -0 0 0 0 0 -0 -0 0 0 0 0 0 0 0 0 0 0 0 0 0 0 0 0 0 0 0 0 0 0 0 0 0 0 0 0 0 0 0 0 0
0 0 0 -0 -0 -0 -0 0 0 0 0 0 0 0 0 0 0 0 0 0 0 0 0 0 0 0 0 0 0 0 0 0 0 0 0 0 0 0 0 0 0 0 0 0 0
0 0 0 0 -0 -0 -0 0 0 0 0 0 0 0 0 0 0 0 0 0 0 0 0 0 0 0 0 0 0 0 0 0 0 0 0 0 0 0 0 0 0 0 0 0 0
0 0 0 0 -0 -0 -0 -0 0 0 0 0 0 0 0 0 0 0 0 0 0 0 0 0 0 0 0 0 0 0 0 0 0 0 0 0 0 0 0 0 0 0 0 0 0
0 0 0 0 -0 -0 -0 -0 0 0 0 0 0 0 0 0 0 0 0 0 0 0 0 0 0 0 0 0 0 0 0 0 0 0 0 0 0 0 0 0 0 0 0 0 0
0 0 0 0 0 0 0 0 0 -0 0 0 0 0 0 0 0 0 0 0 0 0 0 0 0 0 0 0 0 0 0 0 0 0 0 0 0 0 0 0 0 0 0 0 0
0 0 0 0 0 0 0 0 0 0 -0 0 0 0 0 0 0 0 0 0 0 0 0 0 0 0 0 0 0 0 0 0 0 0 0 0 0 0 0 0 0 0 0 0 0
0 0 0 0 0 0 0 0 0 0 0 0 0 0 0 0 0 0 0 0 0 0 0 0 0 0 0 0 0 0 0 0 0 0 0 0 0 0 0 0 0 0 0 0 0
0 0 0 0 0 0 0 0 0 0 0 0 0 0 0 0 0 0 0 0 0 0 0 0 0 0 0 0 0 0 0 0 0 0 0 0 0 0 0 0 0 0 0 0 0
0 0 0 0 0 0 0 0 0 0 0 0 0 0 -0 0 0 0 0 0 0 0 0 0 0 0 0 0 0 0 0 0 0 0 0 0 0 0 0 0 0 0 -0 -0 -0
0 0 0 0 0 0 0 0 0 0 0 0 0 0 0 0 0 0 0 0 0 0 0 0 0 0 0 0 0 0 0 0 0 0 0 0 0 0 0 0 0 0 0 0 -0
0 0 0 0 0 0 0 0 0 0 0 0 0 0 0 0 0 0 0 0 0 0 0 0 0 0 0 0 0 0 0 0 0 0 0 0 0 0 0 0 0 0 0 0 0
0 0 0 0 0 0 0 0 0 0 0 0 0 0 0 0 0 0 0 0 0 0 0 0 0 0 0 0 0 0 0 0 0 0 0 0 0 0 0 0 0 0 0 0 0
0 0 0 0 0 0 0 0 0 0 0 0 0 0 0 0 0 0 0 0 0 0 0 0 0 0 0 0 0 0 0 0 0 0 0 0 0 0 0 0 0 0 0 0 0
Wind_Speed_500mb
46 45 46 43 44 48 45 42 38 42 41 39 40 41 42 45 49 50 55 53 42 35 34 39 33 18 11 13 8 7 5 6 8 10 11 20 10 9 14 33 12 9 13 15 53
41 48 51 49 47 47 50 47 44 41 41 39 39 38 36 39 46 60 54 52 51 44 40 32 28 14 12 10 9 8 6 14 2 3 6 10 13 18 10 23 11 20 17 36 54
41 43 48 52 50 48 50 50 48 44 43 38 38 37 35 29 36 42 45 44 53 51 43 37 28 17 15 20 14 11 10 3 1 5 5 15 6 15 14 4 19 38 53 50 55
42 43 47 47 50 52 49 50 48 49 42 43 36 34 32 20 12 4 3 16 30 41 41 36 28 11 10 12 26 7 20 14 5 3 3 3 19 11 17 6 7 36 44 51 52
45 44 46 46 46 49 51 48 48 51 45 46 38 34 29 24 39 23 29 24 13 20 29 36 32 26 10 12 24 11 6 11 15 8 5 6 7 3 8 6 6 37 51 49 46
46 44 47 48 51 49 49 51 50 48 47 44 41 36 37 24 31 28 37 26 16 14 20 34 17 21 21 16 12 12 21 14 18 12 7 5 3 3 5 11 7 39 52 44 40
47 43 47 48 48 53 54 50 49 51 49 45 50 44 48 58 22 25 33 26 24 18 16 21 33 17 14 4 10 12 3 5 13 12 6 10 8 16 14 15 26 35 34 35 32
44 44 45 45 48 54 56 54 51 53 46 44 48 45 32 36 52 30 18 30 30 19 18 13 25 22 9 7 3 10 5 4 9 22 12 16 12 16 27 19 27 27 33 34 31
40 41 43 49 56 59 56 56 54 54 52 54 44 45 18 23 44 50 46 29 28 22 20 14 16 11 7 6 4 4 6 10 11 27 8 10 6 15 29 40 33 29 31 37 39
37 40 42 45 46 50 56 56 50 46 44 47 51 32 24 34 38 46 36 29 21 23 11 13 11 5 5 8 14 11 8 7 13 10 9 11 13 6 6 19 30 34 32 24 46
39 41 40 41 45 45 54 27 39 20 50 22 7 15 29 35 33 38 44 35 25 28 12 17 8 16 18 17 9 10 8 7 4 3 7 11 9 17 25 17 20 23 24 30 22
35 38 39 37 42 46 35 43 30 17 7 24 30 52 6 45 16 35 49 28 20 12 10 7 16 14 13 13 14 9 9 7 5 3 7 3 10 14 13 14 30 34 37 36 36
32 34 35 35 37 42 54 20 23 23 9 6 34 45 29 24 17 47 56 26 9 14 16 13 7 25 14 12 17 12 13 9 5 4 5 5 10 11 15 28 45 42 35 36 43
32 33 32 32 28 39 48 9 13 33 5 9 16 16 32 6 8 47 58 30 11 23 13 9 11 14 9 9 9 10 10 6 10 7 6 4 9 9 8 16 14 50 59 55 53
33 29 25 23 29 30 45 12 11 28 9 21 15 14 28 12 9 28 57 15 16 12 13 15 11 12 9 10 10 7 6 12 6 8 7 7 3 13 12 11 14 33 45 42 34
31 26 21 21 24 29 31 43 13 4 7 10 14 12 13 15 11 22 23 13 11 6 11 5 4 1 7 5 12 12 14 16 10 7 2 14 13 10 8 9 7 8 13 21 15
28 24 20 16 19 25 23 24 1 7 2 5 6 15 19 6 13 18 13 11 11 11 3 6 3 5 1 15 8 9 11 5 6 4 10 4 9 15 14 3 5 18 24 14 6
26 23 20 15 16 16 15 8 5 6 5 7 6 19 8 10 2 18 18 14 8 8 9 10 5 11 4 9 14 12 10 10 14 8 8 4 10 10 14 17 14 22 14 8 9
26 23 21 15 13 6 6 5 4 4 12 12 9 3 6 7 7 12 12 15 13 13 10 9 7 3 6 2 14 10 8 7 11 6 7 7 9 18 8 7 15 14 20 17 12
24 20 24 16 10 7 5 6 6 7 7 4 4 6 13 15 12 9 17 7 7 15 8 3 9 5 3 4 2 8 9 7 5 7 4 7 5 9 9 8 13 15 15 16 15
19 7 7 16 12 9 5 10 6 15 7 6 5 7 1 10 9 12 18 5 9 7 18 7 8 2 6 9 13 4 5 3 8 9 9 6 9 10 3 16 18 17 17 17 23
14 2 16 28 7 6 6 9 4 6 6 3 3 5 3 9 12 9 16 9 35 16 10 6 8 7 12 6 8 4 9 9 8 7 3 6 9 7 14 22 28 17 15 20 20
13 20 23 36 7 11 6 2 7 3 2 5 5 7 7 7 3 7 10 7 13 19 25 9 1 6 7 9 5 8 8 4 7 5 6 10 10 4 16 14 20 24 23 22 16
21 6 15 35 25 14 15 11 7 9 6 3 6 6 4 8 10 4 6 8 10 25 20 9 8 7 8 7 8 9 11 9 10 4 6 10 5 10 5 9 12 9 2 9 14
28 13 20 11 21 4 9 16 14 12 11 9 7 5 5 4 5 7 3 3 6 14 10 10 9 9 13 2 7 4 5 9 16 22 11 17 14 15 13 7 9 28 33 23 18
26 13 15 8 32 21 17 15 17 7 14 9 10 0 8 7 7 7 3 8 9 7 10 4 4 5 4 12 8 4 15 17 9 2 13 14 24 11 15 24 28 31 19 16 21
43 39 31 19 8 19 22 29 18 17 17 19 16 7 4 10 20 3 13 16 8 12 9 10 10 6 7 3 12 3 23 16 10 11 10 11 21 4 11 19 25 21 25 36 36
Wind_Direction_500mb
284 282 281 279 274 270 273 279 287 281 278 277 267 267 269 270 269 268 265 266 268 263 270 276 280 295 287 278 239 257 88 248 270 5 305 177 138 137 138 140 136 137 164 209 168
296 285 282 281 279 274 269 270 275 284 276 274 274 273 271 275 275 267 261 262 264 260 259 269 273 255 256 237 216 177 193 206 205 101 323 278 145 144 129 144 94 115 146 154 166
302 298 284 280 280 278 272 269 269 274 271 271 268 270 273 279 293 277 268 254 251 254 250 251 257 242 252 227 203 195 208 208 295 102 37 327 224 174 126 223 180 161 158 167 174
302 303 297 287 281 277 274 269 270 263 272 266 264 262 262 255 240 185 274 256 241 242 239 235 231 197 223 218 210 215 241 243 269 358 81 17 315 178 187 181 189 210 190 179 183
299 302 303 294 290 283 270 270 266 262 261 256 255 252 245 234 239 244 286 293 265 235 226 215 204 202 200 222 232 199 250 214 226 250 253 262 305 257 216 149 280 198 190 192 192
309 298 304 302 289 288 280 266 261 260 254 251 243 239 229 235 247 252 259 266 242 218 209 202 198 220 259 253 176 199 225 226 200 227 239 186 267 311 214 201 188 180 189 196 199
312 299 305 299 294 289 285 272 261 253 250 250 235 230 231 234 231 242 247 242 224 208 201 222 212 237 220 257 202 132 95 284 200 190 246 181 289 230 210 183 173 168 187 199 206
316 306 302 300 291 288 294 271 259 249 248 257 236 221 236 251 233 234 243 224 221 211 195 200 217 232 254 265 91 121 89 197 239 172 207 166 252 232 205 179 175 188 193 208 214
313 305 300 304 299 295 292 279 257 241 244 245 244 205 231 229 221 222 230 236 219 209 196 204 184 203 203 167 111 211 177 196 296 184 143 182 224 244 214 208 202 194 211 213 213
308 317 301 311 318 303 291 275 246 236 241 242 236 192 231 215 213 217 217 200 191 178 173 176 202 179 176 162 193 174 183 206 203 218 160 184 244 281 228 191 202 204 204 229 215
313 310 311 311 323 305 302 286 230 217 231 190 187 217 290 206 199 204 192 181 182 175 173 194 158 204 191 195 187 187 159 187 177 288 135 207 226 259 262 246 224 229 229 233 215
313 313 315 312 322 322 303 268 202 176 127 222 234 235 221 161 153 182 179 179 183 181 177 141 228 215 215 211 214 231 170 182 28 356 105 32 277 269 282 251 233 233 235 237 245
314 316 318 311 318 329 330 317 201 198 93 262 208 222 243 187 177 176 177 178 164 170 193 170 239 202 195 183 189 188 179 208 119 186 32 114 294 253 254 246 253 249 247 246 250
315 319 311 318 319 333 336 47 196 225 168 200 194 218 218 189 204 188 185 166 183 196 162 230 250 177 188 184 147 181 190 172 117 117 209 182 274 289 241 265 238 250 251 252 256
314 313 304 313 303 329 335 308 113 180 184 151 159 196 192 201 140 175 183 218 170 182 138 212 168 140 160 187 144 194 126 133 115 120 81 310 17 271 275 262 237 239 242 250 261
312 309 294 309 313 323 329 344 137 127 230 172 150 175 136 184 200 150 166 160 140 122 62 135 306 115 176 69 137 139 82 47 48 80 33 220 170 272 240 194 223 102 156 150 152
309 305 280 295 305 334 336 347 337 288 10 165 179 155 161 159 164 155 149 162 157 113 70 2 341 329 71 88 28 105 88 36 18 5 214 339 153 250 262 269 127 154 139 120 89
303 303 274 273 286 329 340 41 346 329 263 203 117 135 166 151 53 165 145 183 254 124 127 140 307 180 189 160 174 174 152 156 181 192 214 328 217 246 236 173 136 139 134 102 86
301 296 275 266 266 301 336 60 260 287 325 336 101 111 183 161 125 151 189 170 180 180 131 137 225 150 141 78 144 216 206 176 102 26 76 215 271 315 239 120 114 113 117 91 73
292 286 271 268 240 200 61 230 194 292 339 111 353 166 190 172 167 187 156 229 185 188 135 158 110 10 169 107 185 153 168 71 4 121 209 280 243 218 297 69 109 94 79 80 86
269 272 258 215 175 173 203 226 280 275 287 358 119 326 60 178 170 168 158 316 210 221 149 187 110 296 91 216 178 172 192 150 128 162 158 155 255 225 153 143 133 121 103 101 97
212 210 190 186 133 183 181 194 194 312 310 269 172 151 136 262 176 173 176 206 196 197 173 157 109 153 203 249 187 204 194 159 133 236 172 138 264 141 133 134 134 142 128 125 118
201 214 193 201 180 206 175 210 218 235 325 33 296 164 199 283 13 202 167 216 167 167 157 184 60 86 19 355 0 204 218 210 97 72 208 136 249 117 144 118 144 146 152 168 181
192 196 190 205 228 167 181 198 211 232 266 249 297 315 136 256 232 283 147 233 190 161 126 117 125 190 169 173 135 181 200 182 138 131 177 221 242 253 346 7 23 70 0 231 243
193 200 181 187 210 152 138 177 162 186 206 189 320 202 78 319 284 278 162 16 42 163 125 139 160 162 128 84 87 95 61 198 197 221 170 248 197 255 301 334 311 329 325 311 305
193 174 180 165 163 172 186 203 177 173 161 203 203 224 177 160 84 316 278 194 196 224 157 152 170 114 327 164 125 63 333 300 266 303 243 259 272 208 275 285 291 294 307 320 317
208 189 172 172 141 178 205 206 198 139 222 187 190 191 231 184 140 53 352 302 230 175 161 145 140 96 248 327 99 13 215 232 237 201 201 231 249 224 253 268 275 301 294 304 305
Wind_Speed_850mb
46 45 46 43 44 48 45 42 38 42 41 39 40 41 42 45 49 50 55 53 42 35 34 39 33 18 11 13 8 7 5 6 8 10 11 20 10 9 14 33 12 9 13 15 53
41 48 51 49 47 47 50 47 44 41 41 39 39 38 36 39 46 60 54 52 51 44 40 32 28 14 12 10 9 8 6 14 2 3 6 10 13 18 10 23 11 20 17 36 54
41 43 48 52 50 48 50 50 48 44 43 38 38 37 35 29 36 42 45 44 53 51 43 37 28 17 15 20 14 11 10 3 1 5 5 15 6 15 14 4 19 38 53 50 55
42 43 47 47 50 52 49 50 48 49 42 43 36 34 32 20 12 4 3 16 30 41 41 36 28 11 10 12 26 7 20 14 5 3 3 3 19 11 17 6 7 36 44 51 52
45 44 46 46 46 49 51 48 48 51 45 46 38 34 29 24 39 23 29 24 13 20 29 36 32 26 10 12 24 11 6 11 15 8 5 6 7 3 8 6 6 37 51 49 46
46 44 47 48 51 49 49 51 50 48 47 44 41 36 37 24 31 28 37 26 16 14 20 34 17 21 21 16 12 12 21 14 18 12 7 5 3 3 5 11 7 39 52 44 40
47 43 47 48 48 53 54 50 49 51 49 45 50 44 48 58 22 25 33 26 24 18 16 21 33 17 14 4 10 12 3 5 13 12 6 10 8 16 14 15 26 35 34 35 32
44 44 45 45 48 54 56 54 51 53 46 44 48 45 32 36 52 30 18 30 30 19 18 13 25 22 9 7 3 10 5 4 9 22 12 16 12 16 27 19 27 27 33 34 31
40 41 43 49 56 59 56 56 54 54 52 54 44 45 18 23 44 50 46 29 28 22 20 14 16 11 7 6 4 4 6 10 11 27 8 10 6 15 29 40 33 29 31 37 39
37 40 42 45 46 50 56 56 50 46 44 47 51 32 24 34 38 46 36 29 21 23 11 13 11 5 5 8 14 11 8 7 13 10 9 11 13 6 6 19 30 34 32 24 46
39 41 40 41 45 45 54 27 39 20 50 22 7 15 29 35 33 38 44 35 25 28 12 17 8 16 18 17 9 10 8 7 4 3 7 11 9 17 25 17 20 23 24 30 22
35 38 39 37 42 46 35 43 30 17 7 24 30 52 6 45 16 35 49 28 20 12 10 7 16 14 13 13 14 9 9 7 5 3 7 3 10 14 13 14 30 34 37 36 36
32 34 35 35 37 42 54 20 23 23 9 6 34 45 29 24 17 47 56 26 9 14 16 13 7 25 14 12 17 12 13 9 5 4 5 5 10 11 15 28 45 42 35 36 43
32 33 32 32 28 39 48 9 13 33 5 9 16 16 32 6 8 47 58 30 11 23 13 9 11 14 9 9 9 10 10 6 10 7 6 4 9 9 8 16 14 50 59 55 53
33 29 25 23 29 30 45 12 11 28 9 21 15 14 28 12 9 28 57 15 16 12 13 15 11 12 9 10 10 7 6 12 6 8 7 7 3 13 12 11 14 33 45 42 34
31 26 21 21 24 29 31 43 13 4 7 10 14 12 13 15 11 22 23 13 11 6 11 5 4 1 7 5 12 12 14 16 10 7 2 14 13 10 8 9 7 8 13 21 15
28 24 20 16 19 25 23 24 1 7 2 5 6 15 19 6 13 18 13 11 11 11 3 6 3 5 1 15 8 9 11 5 6 4 10 4 9 15 14 3 5 18 24 14 6
26 23 20 15 16 16 15 8 5 6 5 7 6 19 8 10 2 18 18 14 8 8 9 10 5 11 4 9 14 12 10 10 14 8 8 4 10 10 14 17 14 22 14 8 9
26 23 21 15 13 6 6 5 4 4 12 12 9 3 6 7 7 12 12 15 13 13 10 9 7 3 6 2 14 10 8 7 11 6 7 7 9 18 8 7 15 14 20 17 12
24 20 24 16 10 7 5 6 6 7 7 4 4 6 13 15 12 9 17 7 7 15 8 3 9 5 3 4 2 8 9 7 5 7 4 7 5 9 9 8 13 15 15 16 15
19 7 7 16 12 9 5 10 6 15 7 6 5 7 1 10 9 12 18 5 9 7 18 7 8 2 6 9 13 4 5 3 8 9 9 6 9 10 3 16 18 17 17 17 23
14 2 16 28 7 6 6 9 4 6 6 3 3 5 3 9 12 9 16 9 35 16 10 6 8 7 12 6 8 4 9 9 8 7 3 6 9 7 14 22 28 17 15 20 20
13 20 23 36 7 11 6 2 7 3 2 5 5 7 7 7 3 7 10 7 13 19 25 9 1 6 7 9 5 8 8 4 7 5 6 10 10 4 16 14 20 24 23 22 16
21 6 15 35 25 14 15 11 7 9 6 3 6 6 4 8 10 4 6 8 10 25 20 9 8 7 8 7 8 9 11 9 10 4 6 10 5 10 5 9 12 9 2 9 14
28 13 20 11 21 4 9 16 14 12 11 9 7 5 5 4 5 7 3 3 6 14 10 10 9 9 13 2 7 4 5 9 16 22 11 17 14 15 13 7 9 28 33 23 18
26 13 15 8 32 21 17 15 17 7 14 9 10 0 8 7 7 7 3 8 9 7 10 4 4 5 4 12 8 4 15 17 9 2 13 14 24 11 15 24 28 31 19 16 21
43 39 31 19 8 19 22 29 18 17 17 19 16 7 4 10 20 3 13 16 8 12 9 10 10 6 7 3 12 3 23 16 10 11 10 11 21 4 11 19 25 21 25 36 36
Wind_Direction_850mb
284 282 281 279 274 270 273 279 287 281 278 277 267 267 269 270 269 268 265 266 268 263 270 276 280 295 287 278 239 257 88 248 270 5 305 177 138 137 138 140 136 137 164 209 168
296 285 282 281 279 274 269 270 275 284 276 274 274 273 271 275 275 267 261 262 264 260 259 269 273 255 256 237 216 177 193 206 205 101 323 278 145 144 129 144 94 115 146 154 166
302 298 284 280 280 278 272 269 269 274 271 271 268 270 273 279 293 277 268 254 251 254 250 251 257 242 252 227 203 195 208 208 295 102 37 327 224 174 126 223 180 161 158 167 174
302 303 297 287 281 277 274 269 270 263 272 266 264 262 262 255 240 185 274 256 241 242 239 235 231 197 223 218 210 215 241 243 269 358 81 17 315 178 187 181 189 210 190 179 183
299 302 303 294 290 283 270 270 266 262 261 256 255 252 245 234 239 244 286 293 265 235 226 215 204 202 200 222 232 199 250 214 226 250 253 262 305 257 216 149 280 198 190 192 192
309 298 304 302 289 288 280 266 261 260 254 251 243 239 229 235 247 252 259 266 242 218 209 202 198 220 259 253 176 199 225 226 200 227 239 186 267 311 214 201 188 180 189 196 199
312 299 305 299 294 289 285 272 261 253 250 250 235 230 231 234 231 242 247 242 224 208 201 222 212 237 220 257 202 132 95 284 200 190 246 181 289 230 210 183 173 168 187 199 206
316 306 302 300 291 288 294 271 259 249 248 257 236 221 236 251 233 234 243 224 221 211 195 200 217 232 254 265 91 121 89 197 239 172 207 166 252 232 205 179 175 188 193 208 214
313 305 300 304 299 295 292 279 257 241 244 245 244 205 231 229 221 222 230 236 219 209 196 204 184 203 203 167 111 211 177 196 296 184 143 182 224 244 214 208 202 194 211 213 213
308 317 301 311 318 303 291 275 246 236 241 242 236 192 231 215 213 217 217 200 191 178 173 176 202 179 176 162 193 174 183 206 203 218 160 184 244 281 228 191 202 204 204 229 215
313 310 311 311 323 305 302 286 230 217 231 190 187 217 290 206 199 204 192 181 182 175 173 194 158 204 191 195 187 187 159 187 177 288 135 207 226 259 262 246 224 229 229 233 215
313 313 315 312 322 322 303 268 202 176 127 222 234 235 221 161 153 182 179 179 183 181 177 141 228 215 215 211 214 231 170 182 28 356 105 32 277 269 282 251 233 233 235 237 245
314 316 318 311 318 329 330 317 201 198 93 262 208 222 243 187 177 176 177 178 164 170 193 170 239 202 195 183 189 188 179 208 119 186 32 114 294 253 254 246 253 249 247 246 250
315 319 311 318 319 333 336 47 196 225 168 200 194 218 218 189 204 188 185 166 183 196 162 230 250 177 188 184 147 181 190 172 117 117 209 182 274 289 241 265 238 250 251 252 256
314 313 304 313 303 329 335 308 113 180 184 151 159 196 192 201 140 175 183 218 170 182 138 212 168 140 160 187 144 194 126 133 115 120 81 310 17 271 275 262 237 239 242 250 261
312 309 294 309 313 323 329 344 137 127 230 172 150 175 136 184 200 150 166 160 140 122 62 135 306 115 176 69 137 139 82 47 48 80 33 220 170 272 240 194 223 102 156 150 152
309 305 280 295 305 334 336 347 337 288 10 165 179 155 161 159 164 155 149 162 157 113 70 2 341 329 71 88 28 105 88 36 18 5 214 339 153 250 262 269 127 154 139 120 89
303 303 274 273 286 329 340 41 346 329 263 203 117 135 166 151 53 165 145 183 254 124 127 140 307 180 189 160 174 174 152 156 181 192 214 328 217 246 236 173 136 139 134 102 86
301 296 275 266 266 301 336 60 260 287 325 336 101 111 183 161 125 151 189 170 180 180 131 137 225 150 141 78 144 216 206 176 102 26 76 215 271 315 239 120 114 113 117 91 73
292 286 271 268 240 200 61 230 194 292 339 111 353 166 190 172 167 187 156 229 185 188 135 158 110 10 169 107 185 153 168 71 4 121 209 280 243 218 297 69 109 94 79 80 86
269 272 258 215 175 173 203 226 280 275 287 358 119 326 60 178 170 168 158 316 210 221 149 187 110 296 91 216 178 172 192 150 128 162 158 155 255 225 153 143 133 121 103 101 97
212 210 190 186 133 183 181 194 194 312 310 269 172 151 136 262 176 173 176 206 196 197 173 157 109 153 203 249 187 204 194 159 133 236 172 138 264 141 133 134 134 142 128 125 118
201 214 193 201 180 206 175 210 218 235 325 33 296 164 199 283 13 202 167 216 167 167 157 184 60 86 19 355 0 204 218 210 97 72 208 136 249 117 144 118 144 146 152 168 181
192 196 190 205 228 167 181 198 211 232 266 249 297 315 136 256 232 283 147 233 190 161 126 117 125 190 169 173 135 181 200 182 138 131 177 221 242 253 346 7 23 70 0 231 243
193 200 181 187 210 152 138 177 162 186 206 189 320 202 78 319 284 278 162 16 42 163 125 139 160 162 128 84 87 95 61 198 197 221 170 248 197 255 301 334 311 329 325 311 305
193 174 180 165 163 172 186 203 177 173 161 203 203 224 177 160 84 316 278 194 196 224 157 152 170 114 327 164 125 63 333 300 266 303 243 259 272 208 275 285 291 294 307 320 317
208 189 172 172 141 178 205 206 198 139 222 187 190 191 231 184 140 53 352 302 230 175 161 145 140 96 248 327 99 13 215 232 237 201 201 231 249 224 253 268 275 301 294 304 305